Regional Weather Roundup
Issued by NWS State College, PA

Home | Current Version | Previous Version | Text Only | Print | Product List | Glossary On
Versions: 1 2 3 4 5 6 7 8 9 10 11 12 13 14 15 16 17 18 19 20 21 22 23 24 25 26 27 28 29 30 31 32 33 34 35 36 37 38 39 40 41 42 43 44 45 46 47 48 49 50
015
ASUS41 KCTP 290110
RWRCTP

REGIONAL WEATHER ROUNDUP
NATIONAL WEATHER SERVICE STATE COLLEGE PA
900 PM EDT THU APR 28 2016

Note: "fair" indicates few or no clouds below 12,000 feet with no
significant weather and/or obstructions to visibility.

* = STATION THAT DOES NOT REPORT PRECIPITATION /E.G. RAIN...SNOW...ETC/
    THUNDER OR FOG.

PAZ002>004-007>009-013>016-020>023-029>032-290200-
WESTERN PENNSYLVANIA

CITY           SKY/WX    TMP DP  RH WIND       PRES   REMARKS
ERIE           CLOUDY    46  41  82 E7        29.98S
MEADVILLE      CLOUDY    43  41  93 E7        29.96R
FRANKLIN*      CLOUDY    43  39  87 E7        29.98R
NEW CASTLE     CLOUDY    45  42  89 E10       29.96R
BEAVER COUNTY  CLOUDY    45  45 100 CALM      29.94R FOG
BUTLER*        CLOUDY    45  41  87 NE9       29.97R
PITTSBURGH INT DRZL/FOG  49  46  90 N9        29.92S VSB 1/2
PITTSBURGH     FOG       49  47  93 N8        29.91R VSB 1/2
INDIANA*       CLOUDY    46  45  93 E6        29.96R
LATROBE        NOT AVBL
WASHINGTON CO* CLOUDY    52  48  87 N5        29.92R
$$

PAZ004>006-010>012-017>019-024>028-033>037-041-042-045-046-049>053-290200-
CENTRAL PENNSYLVANIA

CITY           SKY/WX    TMP DP  RH WIND       PRES   REMARKS
BRADFORD       CLOUDY    40  38  93 E6        29.98R
DUBOIS         CLOUDY    41  39  93 E8        29.96R FOG
CLEARFIELD     CLOUDY    42  39  89 NE8       29.99R FOG
JOHNSTOWN      FOG       42  39  89 SE6       29.93S VSB 1/4
ALTOONA        CLOUDY    42  40  92 E7        29.99S FOG
STATE COLLEGE  DRIZZLE   43  41  93 CALM      30.00S
WILLIAMSPORT   LGT RAIN  46  43  89 E3        30.03S
SELINSGROVE    CLOUDY    46  43  89 NW5       30.05R
FT INDIANTOWN  CLOUDY    44  44  99 E3        30.04S
CAPITAL CITY   CLOUDY    46  42  86 E8        30.04S
HARRISBURG     CLOUDY    45  42  89 SE8       30.04S
YORK           CLOUDY    45  43  93 E8        30.03S FOG
$$

PAZ038>040-043-044-047-048-054-055-060>062-067>071-290200-
EASTERN PENNSYLVANIA

CITY           SKY/WX    TMP DP  RH WIND       PRES   REMARKS
SCRANTON       CLOUDY    45  41  86 CALM      30.03R
MOUNT POCONO   CLOUDY    44  38  79 W3        30.00R
ALLENTOWN      LGT RAIN  46  42  86 CALM      30.04S
QUAKERTOWN*    CLOUDY    41  41 100 CALM      30.05S
READING        CLOUDY    45  41  86 S3        30.05R
LANCASTER      LGT RAIN  43  42  97 E7        30.05R FOG
COATESVILLE    CLOUDY    41  41 100 SE5       30.06R
POTTSTOWN      CLOUDY    41  41 100 E3        30.06S
BLUE BELL      CLOUDY    41  41 100 CALM      30.04F
DOYLESTOWN     LGT RAIN  40  40 100 CALM      30.05R
WILLOW GROVE   NOT AVBL
NORTH PHILA    CLOUDY    44  42  93 E3        30.07F
PHILADELPHIA   CLOUDY    45  41  86 NE6       30.06S
$$




USA.gov is the U.S. government's official web portal to all federal, state and local government web resources and services.